Time,TemperatureF,DewpointF,PressureIn,WindDirection,WindDirectionDegrees,WindSpeedMPH,WindSpeedGustMPH,Humidity,HourlyPrecipIn,Conditions,Clouds,dailyrainin,SoftwareType,DateUTC
2013-02-14 00:00:00,42.6,31.7,29.83,East,90,0.0,0.2,65,0.00,CLR,,0.00,WeatherDisplay:10.37,2013-02-14 06:00:00,
2013-02-14 00:05:00,42.6,31.7,29.83,East,90,0.0,0.2,65,0.00,CLR,,0.00,WeatherDisplay:10.37,2013-02-14 06:05:00,
2013-02-14 00:10:00,42.6,31.7,29.83,East,90,0.0,0.2,65,0.00,CLR,,0.00,WeatherDisplay:10.37,2013-02-14 06:10:00,
2013-02-14 00:15:00,42.3,31.7,29.82,East,90,0.0,0.3,66,0.00,CLR,,0.00,WeatherDisplay:10.37,2013-02-14 06:15:00,
2013-02-14 00:20:00,42.3,31.7,29.82,SE,135,0.0,0.2,66,0.00,CLR,,0.00,WeatherDisplay:10.37,2013-02-14 06:20:00,
2013-02-14 00:25:00,42.1,31.5,29.82,SSW,202,0.0,0.2,66,0.00,CLR,,0.00,WeatherDisplay:10.37,2013-02-14 06:25:00,
2013-02-14 00:30:00,42.3,31.7,29.82,SW,225,2.3,2.3,66,0.00,CLR,,0.00,WeatherDisplay:10.37,2013-02-14 06:30:00,
2013-02-14 00:35:00,42.3,31.7,29.82,WNW,292,0.0,0.2,66,0.00,CLR,,0.00,WeatherDisplay:10.37,2013-02-14 06:35:00,
2013-02-14 00:40:00,42.3,31.7,29.82,SE,135,0.0,0.2,66,0.00,CLR,,0.00,WeatherDisplay:10.37,2013-02-14 06:40:00,
2013-02-14 00:45:00,42.3,31.7,29.82,East,90,0.0,0.1,66,0.00,CLR,,0.00,WeatherDisplay:10.37,2013-02-14 06:45:00,
2013-02-14 00:50:00,42.3,31.7,29.82,East,90,1.1,1.1,66,0.00,CLR,,0.00,WeatherDisplay:10.37,2013-02-14 06:50:00,
2013-02-14 00:55:00,42.1,31.5,29.81,East,90,0.0,0.4,66,0.00,FEW,,0.00,WeatherDisplay:10.37,2013-02-14 06:55:00,
2013-02-14 01:00:00,42.3,31.7,29.81,WNW,292,0.0,0.2,66,0.00,FEW,,0.00,WeatherDisplay:10.37,2013-02-14 07:00:00,
2013-02-14 01:05:00,41.9,31.4,29.81,WNW,292,0.0,0.0,66,0.00,FEW,,0.00,WeatherDisplay:10.37,2013-02-14 07:05:00,
2013-02-14 01:10:00,41.7,31.2,29.81,ENE,68,1.1,0.0,66,0.00,FEW,,0.00,WeatherDisplay:10.37,2013-02-14 07:10:00,
2013-02-14 01:15:00,41.5,31.4,29.81,East,90,0.0,0.1,67,0.00,FEW,,0.00,WeatherDisplay:10.37,2013-02-14 07:15:00,
2013-02-14 01:20:00,41.5,31.4,29.81,East,90,0.0,0.1,67,0.00,FEW,,0.00,WeatherDisplay:10.37,2013-02-14 07:20:00,
2013-02-14 01:25:00,41.4,31.2,29.81,ESE,112,0.0,0.0,67,0.00,FEW,,0.00,WeatherDisplay:10.37,2013-02-14 07:25:00,
2013-02-14 01:30:00,41.4,31.2,29.81,NW,315,0.0,0.1,67,0.00,FEW,,0.00,WeatherDisplay:10.37,2013-02-14 07:30:00,
2013-02-14 01:35:00,41.4,31.6,29.81,East,90,0.0,0.2,68,0.00,FEW,,0.00,WeatherDisplay:10.37,2013-02-14 07:35:00,
2013-02-14 01:40:00,41.2,31.4,29.81,East,90,0.0,0.1,68,0.00,FEW,,0.00,WeatherDisplay:10.37,2013-02-14 07:40:00,
2013-02-14 01:45:00,41.4,31.6,29.81,ENE,68,0.0,0.0,68,0.00,FEW,,0.00,WeatherDisplay:10.37,2013-02-14 07:45:00,
2013-02-14 01:50:00,41.4,31.6,29.81,NNE,22,0.0,0.2,68,0.00,FEW,,0.00,WeatherDisplay:10.37,2013-02-14 07:50:00,
2013-02-14 01:55:00,41.5,31.4,29.81,South,180,0.0,0.5,67,0.00,BKN,,0.00,WeatherDisplay:10.37,2013-02-14 07:55:00,
2013-02-14 02:00:00,41.5,31.4,29.81,ENE,68,0.0,0.4,67,0.00,BKN,,0.00,WeatherDisplay:10.37,2013-02-14 08:00:00,
2013-02-14 02:05:00,41.9,31.7,29.81,SW,225,0.0,0.1,67,0.00,BKN,,0.00,WeatherDisplay:10.37,2013-02-14 08:05:00,
2013-02-14 02:10:00,41.9,31.7,29.81,South,180,3.4,3.4,67,0.00,BKN,,0.00,WeatherDisplay:10.37,2013-02-14 08:10:00,
2013-02-14 02:15:00,42.1,31.5,29.81,SW,225,3.5,3.5,66,0.00,BKN,,0.00,WeatherDisplay:10.37,2013-02-14 08:15:00,
2013-02-14 02:20:00,42.6,32.0,29.81,ESE,112,3.5,3.5,66,0.00,BKN,,0.00,WeatherDisplay:10.37,2013-02-14 08:20:00,
2013-02-14 02:25:00,42.6,31.7,29.81,SE,135,1.6,1.8,65,0.00,BKN,,0.00,WeatherDisplay:10.37,2013-02-14 08:25:00,
2013-02-14 02:30:00,42.8,31.8,29.81,WNW,292,2.3,2.3,65,0.00,BKN,,0.00,WeatherDisplay:10.37,2013-02-14 08:30:00,
2013-02-14 02:35:00,42.8,31.8,29.80,SW,225,3.4,3.4,65,0.00,BKN,,0.00,WeatherDisplay:10.37,2013-02-14 08:35:00,
2013-02-14 02:40:00,42.8,31.5,29.80,SSE,158,1.4,2.2,64,0.00,BKN,,0.00,WeatherDisplay:10.37,2013-02-14 08:40:00,
2013-02-14 02:45:00,43.0,31.6,29.80,WNW,292,2.3,2.3,64,0.00,BKN,,0.00,WeatherDisplay:10.37,2013-02-14 08:45:00,
2013-02-14 02:50:00,42.8,31.5,29.80,ENE,68,5.8,5.8,64,0.00,BKN,,0.00,WeatherDisplay:10.37,2013-02-14 08:50:00,
2013-02-14 02:55:00,42.8,31.5,29.80,SW,225,3.4,3.4,64,0.00,BKN,,0.00,WeatherDisplay:10.37,2013-02-14 08:55:00,
2013-02-14 03:00:00,42.8,31.5,29.80,SW,225,4.6,4.6,64,0.00,BKN,,0.00,WeatherDisplay:10.37,2013-02-14 09:00:00,
2013-02-14 03:05:00,43.0,31.6,29.80,SW,225,3.6,3.6,64,0.00,BKN,,0.00,WeatherDisplay:10.37,2013-02-14 09:05:00,
2013-02-14 03:10:00,43.0,31.6,29.80,SW,225,3.6,3.6,64,0.00,BKN,,0.00,WeatherDisplay:10.37,2013-02-14 09:10:00,
2013-02-14 03:15:00,42.8,31.5,29.79,WSW,248,3.4,3.4,64,0.00,BKN,,0.00,WeatherDisplay:10.37,2013-02-14 09:15:00,
2013-02-14 03:20:00,42.8,31.5,29.79,SW,225,3.8,3.8,64,0.00,BKN,,0.00,WeatherDisplay:10.37,2013-02-14 09:20:00,
2013-02-14 03:25:00,42.8,31.5,29.79,West,270,2.7,2.7,64,0.00,BKN,,0.00,WeatherDisplay:10.37,2013-02-14 09:25:00,
2013-02-14 03:30:00,43.0,31.6,29.79,NW,315,3.8,3.8,64,0.00,BKN,,0.00,WeatherDisplay:10.37,2013-02-14 09:30:00,
2013-02-14 03:35:00,42.8,31.5,29.79,SW,225,2.5,2.5,64,0.00,BKN,,0.00,WeatherDisplay:10.37,2013-02-14 09:35:00,
2013-02-14 03:40:00,42.8,31.5,29.79,WSW,248,4.9,4.9,64,0.00,BKN,,0.00,WeatherDisplay:10.37,2013-02-14 09:40:00,
2013-02-14 03:45:00,42.6,31.3,29.79,WSW,248,5.8,5.8,64,0.00,BKN,,0.00,WeatherDisplay:10.37,2013-02-14 09:45:00,
2013-02-14 03:50:00,42.6,31.3,29.79,SW,225,2.6,2.6,64,0.00,BKN,,0.00,WeatherDisplay:10.37,2013-02-14 09:50:00,
2013-02-14 03:55:00,42.6,31.3,29.79,WSW,248,2.3,2.4,64,0.00,BKN,,0.00,WeatherDisplay:10.37,2013-02-14 09:55:00,
2013-02-14 04:00:00,42.6,31.3,29.79,SW,225,2.3,2.3,64,0.00,BKN,,0.00,WeatherDisplay:10.37,2013-02-14 10:00:00,
2013-02-14 04:05:00,42.6,31.3,29.79,SW,225,0.0,1.6,64,0.00,BKN,,0.00,WeatherDisplay:10.37,2013-02-14 10:05:00,
2013-02-14 04:10:00,42.6,31.3,29.79,WSW,248,1.1,1.5,64,0.00,BKN,,0.00,WeatherDisplay:10.37,2013-02-14 10:10:00,
2013-02-14 04:15:00,42.8,31.5,29.79,SW,225,0.0,1.6,64,0.00,BKN,,0.00,WeatherDisplay:10.37,2013-02-14 10:15:00,
2013-02-14 04:20:00,42.6,31.3,29.79,SSW,202,2.3,2.3,64,0.00,BKN,,0.00,WeatherDisplay:10.37,2013-02-14 10:20:00,
2013-02-14 04:25:00,42.6,31.3,29.79,WSW,248,3.8,3.8,64,0.00,BKN,,0.00,WeatherDisplay:10.37,2013-02-14 10:25:00,
2013-02-14 04:30:00,42.6,31.3,29.79,SSW,202,4.6,4.6,64,0.00,BKN,,0.00,WeatherDisplay:10.37,2013-02-14 10:30:00,
2013-02-14 04:35:00,42.8,31.5,29.79,NE,45,1.5,1.7,64,0.00,BKN,,0.00,WeatherDisplay:10.37,2013-02-14 10:35:00,
2013-02-14 04:40:00,42.6,31.3,29.79,SW,225,1.5,1.5,64,0.00,BKN,,0.00,WeatherDisplay:10.37,2013-02-14 10:40:00,
2013-02-14 04:45:00,42.4,31.1,29.79,West,270,1.3,1.3,64,0.00,BKN,,0.00,WeatherDisplay:10.37,2013-02-14 10:45:00,
2013-02-14 04:50:00,42.6,31.3,29.79,SW,225,2.3,2.3,64,0.00,BKN,,0.00,WeatherDisplay:10.37,2013-02-14 10:50:00,
2013-02-14 04:55:00,42.4,31.1,29.79,WNW,292,1.4,1.4,64,0.00,SCT,,0.00,WeatherDisplay:10.37,2013-02-14 10:55:00,
2013-02-14 05:00:00,42.3,30.9,29.79,SSW,202,0.0,1.1,64,0.00,SCT,,0.00,WeatherDisplay:10.37,2013-02-14 11:00:00,
2013-02-14 05:05:00,42.3,30.9,29.79,WSW,248,3.3,3.3,64,0.00,SCT,,0.00,WeatherDisplay:10.37,2013-02-14 11:05:00,
2013-02-14 05:10:00,42.4,31.1,29.79,SW,225,0.0,1.9,64,0.00,SCT,,0.00,WeatherDisplay:10.37,2013-02-14 11:10:00,
2013-02-14 05:15:00,42.6,31.3,29.79,SW,225,4.6,4.6,64,0.00,SCT,,0.00,WeatherDisplay:10.37,2013-02-14 11:15:00,
2013-02-14 05:20:00,42.6,31.3,29.79,SSW,202,3.7,3.7,64,0.00,SCT,,0.00,WeatherDisplay:10.37,2013-02-14 11:20:00,
2013-02-14 05:25:00,42.6,31.3,29.79,WSW,248,2.3,2.3,64,0.00,SCT,,0.00,WeatherDisplay:10.37,2013-02-14 11:25:00,
2013-02-14 05:30:00,42.4,31.1,29.79,ESE,112,1.3,1.4,64,0.00,SCT,,0.00,WeatherDisplay:10.37,2013-02-14 11:30:00,
2013-02-14 05:35:00,42.6,31.3,29.80,SW,225,2.3,2.3,64,0.00,SCT,,0.00,WeatherDisplay:10.37,2013-02-14 11:35:00,
2013-02-14 05:40:00,42.6,31.3,29.80,WSW,248,4.6,4.6,64,0.00,SCT,,0.00,WeatherDisplay:10.37,2013-02-14 11:40:00,
2013-02-14 05:45:00,42.4,31.1,29.80,SE,135,1.6,2.6,64,0.00,SCT,,0.00,WeatherDisplay:10.37,2013-02-14 11:45:00,
2013-02-14 05:50:00,42.4,31.1,29.80,WSW,248,5.8,5.8,64,0.00,SCT,,0.00,WeatherDisplay:10.37,2013-02-14 11:50:00,
2013-02-14 05:55:00,42.3,30.9,29.80,South,180,1.6,2.2,64,0.00,FEW,,0.00,WeatherDisplay:10.37,2013-02-14 11:55:00,
2013-02-14 06:00:00,42.3,30.9,29.80,WSW,248,2.4,2.4,64,0.00,FEW,,0.00,WeatherDisplay:10.37,2013-02-14 12:00:00,
2013-02-14 06:05:00,42.1,30.8,29.80,SW,225,2.3,2.3,64,0.00,FEW,,0.00,WeatherDisplay:10.37,2013-02-14 12:05:00,
2013-02-14 06:10:00,42.1,30.8,29.80,SW,225,2.3,2.3,64,0.00,FEW,,0.00,WeatherDisplay:10.37,2013-02-14 12:10:00,
2013-02-14 06:15:00,42.1,31.2,29.80,WSW,248,2.3,2.3,65,0.00,FEW,,0.00,WeatherDisplay:10.37,2013-02-14 12:15:00,
2013-02-14 06:20:00,41.9,31.0,29.80,WSW,248,3.4,3.4,65,0.00,FEW,,0.00,WeatherDisplay:10.37,2013-02-14 12:20:00,
2013-02-14 06:25:00,41.9,31.0,29.80,WSW,248,1.6,1.6,65,0.00,FEW,,0.00,WeatherDisplay:10.37,2013-02-14 12:25:00,
2013-02-14 06:30:00,41.7,30.8,29.80,WSW,248,2.3,2.3,65,0.00,FEW,,0.00,WeatherDisplay:10.37,2013-02-14 12:30:00,
2013-02-14 06:35:00,41.9,31.0,29.82,SSW,202,2.3,2.3,65,0.00,FEW,,0.00,WeatherDisplay:10.37,2013-02-14 12:35:00,
2013-02-14 06:40:00,41.9,31.0,29.82,ESE,112,1.1,2.0,65,0.00,FEW,,0.00,WeatherDisplay:10.37,2013-02-14 12:40:00,
2013-02-14 06:45:00,41.5,30.6,29.82,WSW,248,2.3,2.3,65,0.00,FEW,,0.00,WeatherDisplay:10.37,2013-02-14 12:45:00,
2013-02-14 06:50:00,41.5,30.6,29.82,WSW,248,3.4,3.4,65,0.00,FEW,,0.00,WeatherDisplay:10.37,2013-02-14 12:50:00,
2013-02-14 06:55:00,41.4,30.8,29.82,ENE,68,3.9,3.9,66,0.00,SCT,,0.00,WeatherDisplay:10.37,2013-02-14 12:55:00,
2013-02-14 07:00:00,41.5,31.0,29.82,WNW,292,3.4,3.4,66,0.00,SCT,,0.00,WeatherDisplay:10.37,2013-02-14 13:00:00,
2013-02-14 07:05:00,41.4,30.5,29.82,WSW,248,1.6,2.3,65,0.00,SCT,,0.00,WeatherDisplay:10.37,2013-02-14 13:05:00,
2013-02-14 07:10:00,41.5,31.0,29.82,WSW,248,3.4,3.4,66,0.00,SCT,,0.00,WeatherDisplay:10.37,2013-02-14 13:10:00,
2013-02-14 07:15:00,41.2,30.3,29.82,WSW,248,2.4,2.4,65,0.00,SCT,,0.00,WeatherDisplay:10.37,2013-02-14 13:15:00,
2013-02-14 07:20:00,41.2,30.7,29.82,West,270,2.3,2.3,66,0.00,SCT,,0.00,WeatherDisplay:10.37,2013-02-14 13:20:00,
2013-02-14 07:25:00,41.4,30.8,29.82,NW,315,2.3,2.3,66,0.00,SCT,,0.00,WeatherDisplay:10.37,2013-02-14 13:25:00,
2013-02-14 07:30:00,41.2,30.7,29.82,WSW,248,2.7,2.7,66,0.00,SCT,,0.00,WeatherDisplay:10.37,2013-02-14 13:30:00,
2013-02-14 07:35:00,41.4,30.8,29.84,South,180,2.6,2.6,66,0.00,SCT,,0.00,WeatherDisplay:10.37,2013-02-14 13:35:00,
2013-02-14 07:40:00,41.4,30.8,29.84,SE,135,4.0,4.0,66,0.00,SCT,,0.00,WeatherDisplay:10.37,2013-02-14 13:40:00,
2013-02-14 07:45:00,41.5,31.0,29.84,WSW,248,3.4,3.4,66,0.00,SCT,,0.00,WeatherDisplay:10.37,2013-02-14 13:45:00,
2013-02-14 07:50:00,41.7,31.2,29.84,SW,225,5.8,5.8,66,0.00,SCT,,0.00,WeatherDisplay:10.37,2013-02-14 13:50:00,
2013-02-14 07:55:00,42.3,31.7,29.85,SW,225,4.6,4.6,66,0.00,BKN,,0.00,WeatherDisplay:10.37,2013-02-14 13:55:00,
2013-02-14 08:00:00,42.3,31.3,29.85,SW,225,3.8,3.8,65,0.00,BKN,,0.00,WeatherDisplay:10.37,2013-02-14 14:00:00,
2013-02-14 08:05:00,42.6,31.7,29.85,SW,225,4.9,4.9,65,0.00,BKN,,0.00,WeatherDisplay:10.37,2013-02-14 14:05:00,
2013-02-14 08:10:00,42.8,31.5,29.85,SW,225,4.8,4.8,64,0.00,BKN,,0.00,WeatherDisplay:10.37,2013-02-14 14:10:00,
2013-02-14 08:15:00,43.0,31.6,29.85,WNW,292,2.7,4.1,64,0.00,BKN,,0.00,WeatherDisplay:10.37,2013-02-14 14:15:00,
2013-02-14 08:20:00,43.3,32.0,29.85,West,270,5.0,5.0,64,0.00,BKN,,0.00,WeatherDisplay:10.37,2013-02-14 14:20:00,
2013-02-14 08:25:00,43.5,32.1,29.85,WSW,248,3.7,3.7,64,0.00,BKN,,0.00,WeatherDisplay:10.37,2013-02-14 14:25:00,
2013-02-14 08:30:00,44.1,32.3,29.85,WSW,248,2.3,2.9,63,0.00,BKN,,0.00,WeatherDisplay:10.37,2013-02-14 14:30:00,
2013-02-14 08:35:00,44.2,32.0,29.88,NNE,22,3.4,3.4,62,0.00,BKN,,0.00,WeatherDisplay:10.37,2013-02-14 14:35:00,
2013-02-14 08:40:00,44.6,32.0,29.88,North,0,3.9,3.9,61,0.00,BKN,,0.00,WeatherDisplay:10.37,2013-02-14 14:40:00,
2013-02-14 08:45:00,45.5,32.4,29.88,WSW,248,6.9,6.9,60,0.00,BKN,,0.00,WeatherDisplay:10.37,2013-02-14 14:45:00,
2013-02-14 08:50:00,45.7,32.6,29.88,WNW,292,4.6,4.6,60,0.00,BKN,,0.00,WeatherDisplay:10.37,2013-02-14 14:50:00,
2013-02-14 08:55:00,45.9,32.3,29.87,WSW,248,4.6,4.6,59,0.00,SCT,,0.00,WeatherDisplay:10.37,2013-02-14 14:55:00,
2013-02-14 09:00:00,45.9,32.3,29.87,WNW,292,5.8,5.8,59,0.00,SCT,,0.00,WeatherDisplay:10.37,2013-02-14 15:00:00,
2013-02-14 09:05:00,45.9,31.9,29.87,West,270,2.4,3.0,58,0.00,SCT,,0.00,WeatherDisplay:10.37,2013-02-14 15:05:00,
2013-02-14 09:10:00,46.0,32.1,29.87,WNW,292,4.6,4.6,58,0.00,SCT,,0.00,WeatherDisplay:10.37,2013-02-14 15:10:00,
2013-02-14 09:15:00,45.9,31.9,29.88,SW,225,4.9,4.9,58,0.00,SCT,,0.00,WeatherDisplay:10.37,2013-02-14 15:15:00,
2013-02-14 09:20:00,46.2,32.2,29.88,SSW,202,3.4,3.4,58,0.00,SCT,,0.00,WeatherDisplay:10.37,2013-02-14 15:20:00,
2013-02-14 09:25:00,46.6,32.6,29.88,SW,225,1.7,2.7,58,0.00,SCT,,0.00,WeatherDisplay:10.37,2013-02-14 15:25:00,
2013-02-14 09:30:00,47.3,33.3,29.88,WNW,292,3.4,3.4,58,0.00,SCT,,0.00,WeatherDisplay:10.37,2013-02-14 15:30:00,
2013-02-14 09:35:00,47.8,32.9,29.88,WNW,292,4.6,4.6,56,0.00,SCT,,0.00,WeatherDisplay:10.37,2013-02-14 15:35:00,
2013-02-14 09:40:00,48.4,33.4,29.88,South,180,1.5,3.0,56,0.00,SCT,,0.00,WeatherDisplay:10.37,2013-02-14 15:40:00,
2013-02-14 09:45:00,48.7,33.3,29.88,SW,225,5.1,5.1,55,0.00,SCT,,0.00,WeatherDisplay:10.37,2013-02-14 15:45:00,
2013-02-14 09:50:00,49.1,33.6,29.88,WSW,248,2.3,2.8,55,0.00,SCT,,0.00,WeatherDisplay:10.37,2013-02-14 15:50:00,
2013-02-14 09:55:00,49.8,33.4,29.89,NW,315,3.4,3.4,53,0.00,SCT,,0.00,WeatherDisplay:10.37,2013-02-14 15:55:00,
2013-02-14 10:00:00,50.4,33.9,29.89,North,0,3.5,3.5,53,0.00,SCT,,0.00,WeatherDisplay:10.37,2013-02-14 16:00:00,
2013-02-14 10:05:00,51.1,34.5,29.89,NNE,22,2.4,2.4,53,0.00,SCT,,0.00,WeatherDisplay:10.37,2013-02-14 16:05:00,
2013-02-14 10:10:00,51.8,34.2,29.89,North,0,0.0,1.7,51,0.00,SCT,,0.00,WeatherDisplay:10.37,2013-02-14 16:10:00,
2013-02-14 10:15:00,52.7,34.6,29.89,West,270,3.4,3.4,50,0.00,SCT,,0.00,WeatherDisplay:10.37,2013-02-14 16:15:00,
2013-02-14 10:20:00,52.7,34.1,29.89,West,270,4.7,4.7,49,0.00,SCT,,0.00,WeatherDisplay:10.37,2013-02-14 16:20:00,
2013-02-14 10:25:00,53.1,34.4,29.89,WSW,248,3.5,3.5,49,0.00,SCT,,0.00,WeatherDisplay:10.37,2013-02-14 16:25:00,
2013-02-14 10:30:00,52.9,33.7,29.89,WNW,292,2.3,2.3,48,0.00,SCT,,0.00,WeatherDisplay:10.37,2013-02-14 16:30:00,
2013-02-14 10:35:00,53.1,34.4,29.89,SW,225,2.3,2.4,49,0.00,SCT,,0.00,WeatherDisplay:10.37,2013-02-14 16:35:00,
2013-02-14 10:40:00,53.2,34.0,29.89,North,0,2.7,2.7,48,0.00,SCT,,0.00,WeatherDisplay:10.37,2013-02-14 16:40:00,
2013-02-14 10:45:00,53.6,34.9,29.89,SSW,202,4.7,4.7,49,0.00,SCT,,0.00,WeatherDisplay:10.37,2013-02-14 16:45:00,
2013-02-14 10:50:00,53.8,34.0,29.89,SW,225,3.4,3.4,47,0.00,SCT,,0.00,WeatherDisplay:10.37,2013-02-14 16:50:00,
2013-02-14 10:55:00,53.8,34.5,29.89,SW,225,3.5,3.5,48,0.00,SCT,,0.00,WeatherDisplay:10.37,2013-02-14 16:55:00,
2013-02-14 11:00:00,54.1,34.3,29.89,WSW,248,8.4,8.4,47,0.00,SCT,,0.00,WeatherDisplay:10.37,2013-02-14 17:00:00,
2013-02-14 11:05:00,54.3,34.5,29.89,West,270,2.4,2.9,47,0.00,SCT,,0.00,WeatherDisplay:10.37,2013-02-14 17:05:00,
2013-02-14 11:10:00,54.9,35.0,29.89,SW,225,6.2,6.2,47,0.00,SCT,,0.00,WeatherDisplay:10.37,2013-02-14 17:10:00,
2013-02-14 11:15:00,54.9,35.0,29.90,NNW,338,3.4,3.4,47,0.00,SCT,,0.00,WeatherDisplay:10.37,2013-02-14 17:15:00,
2013-02-14 11:20:00,55.0,35.2,29.90,NW,315,5.8,5.8,47,0.00,SCT,,0.00,WeatherDisplay:10.37,2013-02-14 17:20:00,
2013-02-14 11:25:00,55.9,36.0,29.90,SW,225,3.6,3.6,47,0.00,SCT,,0.00,WeatherDisplay:10.37,2013-02-14 17:25:00,
2013-02-14 11:30:00,55.8,35.3,29.90,SW,225,5.1,5.1,46,0.00,SCT,,0.00,WeatherDisplay:10.37,2013-02-14 17:30:00,
2013-02-14 11:35:00,55.8,35.3,29.90,SW,225,2.4,3.8,46,0.00,SCT,,0.00,WeatherDisplay:10.37,2013-02-14 17:35:00,
2013-02-14 11:40:00,56.3,35.2,29.90,South,180,5.8,5.8,45,0.00,SCT,,0.00,WeatherDisplay:10.37,2013-02-14 17:40:00,
2013-02-14 11:45:00,55.6,34.6,29.90,WSW,248,5.8,5.8,45,0.00,SCT,,0.00,WeatherDisplay:10.37,2013-02-14 17:45:00,
2013-02-14 11:50:00,55.8,34.7,29.90,WNW,292,2.4,3.7,45,0.00,SCT,,0.00,WeatherDisplay:10.37,2013-02-14 17:50:00,
2013-02-14 11:51:00,56.5,35.4,29.91,WNW,292,4.7,4.7,45,0.00,SCT,,0.00,WeatherDisplay:10.37,2013-02-14 17:51:00,
2013-02-14 11:55:00,56.5,35.4,29.91,WSW,248,3.9,3.9,45,0.00,SCT,,0.00,WeatherDisplay:10.37,2013-02-14 17:55:00,
2013-02-14 12:00:00,56.7,35.5,29.91,WSW,248,4.6,4.6,45,0.00,SCT,,0.00,WeatherDisplay:10.37,2013-02-14 18:00:00,
2013-02-14 12:05:00,56.7,35.5,29.91,WNW,292,3.4,3.4,45,0.00,SCT,,0.00,WeatherDisplay:10.37,2013-02-14 18:05:00,
2013-02-14 12:10:00,56.7,35.5,29.91,WNW,292,3.4,3.4,45,0.00,SCT,,0.00,WeatherDisplay:10.37,2013-02-14 18:10:00,
2013-02-14 12:15:00,57.0,34.7,29.90,SW,225,7.0,7.0,43,0.00,SCT,,0.00,WeatherDisplay:10.37,2013-02-14 18:15:00,
2013-02-14 12:20:00,57.0,34.7,29.90,WSW,248,6.0,6.0,43,0.00,SCT,,0.00,WeatherDisplay:10.37,2013-02-14 18:20:00,
2013-02-14 12:25:00,57.0,33.5,29.90,North,0,6.9,6.9,41,0.00,SCT,,0.00,WeatherDisplay:10.37,2013-02-14 18:25:00,
2013-02-14 12:30:00,56.8,34.0,29.90,ESE,112,3.4,4.8,42,0.00,SCT,,0.00,WeatherDisplay:10.37,2013-02-14 18:30:00,
2013-02-14 12:35:00,57.2,34.3,29.89,SW,225,4.0,4.0,42,0.00,SCT,,0.00,WeatherDisplay:10.37,2013-02-14 18:35:00,
2013-02-14 12:40:00,57.6,34.6,29.89,WSW,248,3.4,3.4,42,0.00,SCT,,0.00,WeatherDisplay:10.37,2013-02-14 18:40:00,
2013-02-14 12:45:00,58.3,35.3,29.89,North,0,4.0,4.0,42,0.00,SCT,,0.00,WeatherDisplay:10.37,2013-02-14 18:45:00,
2013-02-14 12:50:00,58.5,34.8,29.89,ENE,68,4.6,4.6,41,0.00,SCT,,0.00,WeatherDisplay:10.37,2013-02-14 18:50:00,
2013-02-14 12:55:00,58.5,34.8,29.89,West,270,5.8,5.8,41,0.00,SCT,,0.00,WeatherDisplay:10.37,2013-02-14 18:55:00,
2013-02-14 13:00:00,58.6,35.0,29.89,WNW,292,3.4,3.4,41,0.00,SCT,,0.00,WeatherDisplay:10.37,2013-02-14 19:00:00,
2013-02-14 13:05:00,59.2,34.9,29.89,North,0,3.9,3.9,40,0.00,SCT,,0.00,WeatherDisplay:10.37,2013-02-14 19:05:00,
2013-02-14 13:10:00,59.2,34.2,29.89,WNW,292,6.9,6.9,39,0.00,SCT,,0.00,WeatherDisplay:10.37,2013-02-14 19:10:00,
2013-02-14 13:15:00,59.4,35.0,29.87,West,270,5.8,5.8,40,0.00,SCT,,0.00,WeatherDisplay:10.37,2013-02-14 19:15:00,
2013-02-14 13:20:00,59.5,35.2,29.87,SSE,158,2.3,2.5,40,0.00,SCT,,0.00,WeatherDisplay:10.37,2013-02-14 19:20:00,
2013-02-14 13:25:00,60.1,35.0,29.87,WSW,248,2.8,2.8,39,0.00,SCT,,0.00,WeatherDisplay:10.37,2013-02-14 19:25:00,
2013-02-14 13:30:00,60.1,33.7,29.87,North,0,2.3,2.6,37,0.00,SCT,,0.00,WeatherDisplay:10.37,2013-02-14 19:30:00,
2013-02-14 13:35:00,60.3,35.2,29.88,WSW,248,5.1,5.1,39,0.00,SCT,,0.00,WeatherDisplay:10.37,2013-02-14 19:35:00,
2013-02-14 13:40:00,60.3,33.9,29.88,NW,315,3.4,3.4,37,0.00,SCT,,0.00,WeatherDisplay:10.37,2013-02-14 19:40:00,
2013-02-14 13:45:00,60.1,34.4,29.88,NW,315,5.8,5.8,38,0.00,SCT,,0.00,WeatherDisplay:10.37,2013-02-14 19:45:00,
2013-02-14 13:50:00,60.1,34.4,29.88,WNW,292,4.7,4.7,38,0.00,SCT,,0.00,WeatherDisplay:10.37,2013-02-14 19:50:00,
2013-02-14 13:55:00,60.3,34.5,29.88,WNW,292,2.4,2.5,38,0.00,BKN,,0.00,WeatherDisplay:10.37,2013-02-14 19:55:00,
2013-02-14 14:00:00,60.4,34.7,29.88,NNW,338,0.0,1.8,38,0.00,BKN,,0.00,WeatherDisplay:10.37,2013-02-14 20:00:00,
2013-02-14 14:05:00,61.0,34.5,29.88,WNW,292,2.3,2.3,37,0.00,BKN,,0.00,WeatherDisplay:10.37,2013-02-14 20:05:00,
2013-02-14 14:10:00,60.6,33.5,29.88,SW,225,3.4,3.4,36,0.00,BKN,,0.00,WeatherDisplay:10.37,2013-02-14 20:10:00,
2013-02-14 14:15:00,59.7,33.4,29.88,WNW,292,4.0,4.0,37,0.00,BKN,,0.00,WeatherDisplay:10.37,2013-02-14 20:15:00,
2013-02-14 14:20:00,59.5,33.9,29.88,WSW,248,4.6,4.6,38,0.00,BKN,,0.00,WeatherDisplay:10.37,2013-02-14 20:20:00,
2013-02-14 14:25:00,59.5,33.2,29.88,WSW,248,3.6,3.6,37,0.00,BKN,,0.00,WeatherDisplay:10.37,2013-02-14 20:25:00,
2013-02-14 14:30:00,59.4,33.1,29.88,West,270,3.4,3.4,37,0.00,BKN,,0.00,WeatherDisplay:10.37,2013-02-14 20:30:00,
2013-02-14 14:35:00,59.4,33.1,29.88,WSW,248,5.9,5.9,37,0.00,BKN,,0.00,WeatherDisplay:10.37,2013-02-14 20:35:00,
2013-02-14 14:40:00,59.5,33.9,29.88,SW,225,6.9,6.9,38,0.00,BKN,,0.00,WeatherDisplay:10.37,2013-02-14 20:40:00,
2013-02-14 14:45:00,59.2,33.6,29.88,WSW,248,6.9,6.9,38,0.00,BKN,,0.00,WeatherDisplay:10.37,2013-02-14 20:45:00,
2013-02-14 14:50:00,59.0,33.4,29.88,SSW,202,8.1,8.1,38,0.00,BKN,,0.00,WeatherDisplay:10.37,2013-02-14 20:50:00,
2013-02-14 14:55:00,58.8,33.2,29.89,WSW,248,3.4,3.9,38,0.00,BKN,,0.00,WeatherDisplay:10.37,2013-02-14 20:55:00,
2013-02-14 15:00:00,59.2,33.6,29.89,WNW,292,5.8,5.8,38,0.00,BKN,,0.00,WeatherDisplay:10.37,2013-02-14 21:00:00,
2013-02-14 15:05:00,59.5,33.9,29.89,SW,225,4.7,4.7,38,0.00,BKN,,0.00,WeatherDisplay:10.37,2013-02-14 21:05:00,
2013-02-14 15:10:00,59.5,33.2,29.89,SW,225,3.4,3.4,37,0.00,BKN,,0.00,WeatherDisplay:10.37,2013-02-14 21:10:00,
2013-02-14 15:15:00,59.4,33.1,29.90,WSW,248,7.1,7.1,37,0.00,BKN,,0.00,WeatherDisplay:10.37,2013-02-14 21:15:00,
2013-02-14 15:20:00,59.0,32.7,29.90,WSW,248,5.8,5.8,37,0.00,BKN,,0.00,WeatherDisplay:10.37,2013-02-14 21:20:00,
2013-02-14 15:25:00,58.6,33.1,29.90,WSW,248,8.1,8.1,38,0.00,BKN,,0.00,WeatherDisplay:10.37,2013-02-14 21:25:00,
2013-02-14 15:30:00,58.5,32.9,29.90,SSW,202,4.0,4.0,38,0.00,BKN,,0.00,WeatherDisplay:10.37,2013-02-14 21:30:00,
2013-02-14 15:35:00,58.6,32.4,29.90,WSW,248,3.8,4.1,37,0.00,BKN,,0.00,WeatherDisplay:10.37,2013-02-14 21:35:00,
2013-02-14 15:40:00,58.8,32.6,29.90,NE,45,2.8,3.3,37,0.00,BKN,,0.00,WeatherDisplay:10.37,2013-02-14 21:40:00,
2013-02-14 15:45:00,58.6,31.7,29.90,NE,45,2.3,2.3,36,0.00,BKN,,0.00,WeatherDisplay:10.37,2013-02-14 21:45:00,
2013-02-14 15:50:00,58.5,32.3,29.90,WNW,292,2.8,2.8,37,0.00,BKN,,0.00,WeatherDisplay:10.37,2013-02-14 21:50:00,
2013-02-14 15:55:00,58.1,31.9,29.91,WNW,292,4.9,4.9,37,0.00,BKN,,0.00,WeatherDisplay:10.37,2013-02-14 21:55:00,
2013-02-14 16:00:00,57.7,31.6,29.91,East,90,3.9,3.9,37,0.00,BKN,,0.00,WeatherDisplay:10.37,2013-02-14 22:00:00,
2013-02-14 16:05:00,57.7,32.3,29.91,WSW,248,4.6,4.6,38,0.00,BKN,,0.00,WeatherDisplay:10.37,2013-02-14 22:05:00,
2013-02-14 16:10:00,57.4,32.0,29.91,WNW,292,6.9,6.9,38,0.00,BKN,,0.00,WeatherDisplay:10.37,2013-02-14 22:10:00,
2013-02-14 16:15:00,57.4,32.0,29.92,WSW,248,5.8,5.8,38,0.00,BKN,,0.00,WeatherDisplay:10.37,2013-02-14 22:15:00,
2013-02-14 16:20:00,57.2,31.8,29.92,ENE,68,4.6,4.6,38,0.00,BKN,,0.00,WeatherDisplay:10.37,2013-02-14 22:20:00,
2013-02-14 16:25:00,56.7,32.0,29.92,NW,315,2.3,2.3,39,0.00,BKN,,0.00,WeatherDisplay:10.37,2013-02-14 22:25:00,
2013-02-14 16:30:00,56.7,32.0,29.92,WNW,292,2.3,2.3,39,0.00,BKN,,0.00,WeatherDisplay:10.37,2013-02-14 22:30:00,
2013-02-14 16:35:00,56.7,32.0,29.92,SE,135,5.8,5.8,39,0.00,BKN,,0.00,WeatherDisplay:10.37,2013-02-14 22:35:00,
2013-02-14 16:40:00,56.5,31.8,29.92,NW,315,3.4,3.4,39,0.00,BKN,,0.00,WeatherDisplay:10.37,2013-02-14 22:40:00,
2013-02-14 16:45:00,56.7,32.0,29.92,WNW,292,4.0,4.0,39,0.00,BKN,,0.00,WeatherDisplay:10.37,2013-02-14 22:45:00,
2013-02-14 16:50:00,56.5,32.4,29.92,WNW,292,4.6,4.6,40,0.00,BKN,,0.00,WeatherDisplay:10.37,2013-02-14 22:50:00,
2013-02-14 16:55:00,56.3,32.9,29.92,WNW,292,0.0,1.8,41,0.00,BKN,,0.00,WeatherDisplay:10.37,2013-02-14 22:55:00,
2013-02-14 17:00:00,55.9,33.2,29.92,WNW,292,0.0,1.2,42,0.00,BKN,,0.00,WeatherDisplay:10.37,2013-02-14 23:00:00,
2013-02-14 17:05:00,55.6,32.8,29.92,NW,315,0.0,1.1,42,0.00,BKN,,0.00,WeatherDisplay:10.37,2013-02-14 23:05:00,
2013-02-14 17:10:00,55.0,32.9,29.92,WNW,292,2.7,2.7,43,0.00,BKN,,0.00,WeatherDisplay:10.37,2013-02-14 23:10:00,
2013-02-14 17:15:00,54.5,32.4,29.93,NNE,22,3.5,3.5,43,0.00,BKN,,0.00,WeatherDisplay:10.37,2013-02-14 23:15:00,
2013-02-14 17:20:00,54.1,32.7,29.93,NNE,22,1.1,1.7,44,0.00,BKN,,0.00,WeatherDisplay:10.37,2013-02-14 23:20:00,
2013-02-14 17:25:00,53.6,32.2,29.93,West,270,3.6,3.6,44,0.00,BKN,,0.00,WeatherDisplay:10.37,2013-02-14 23:25:00,
2013-02-14 17:30:00,53.2,32.4,29.93,NW,315,2.6,2.6,45,0.00,BKN,,0.00,WeatherDisplay:10.37,2013-02-14 23:30:00,
2013-02-14 17:35:00,53.1,32.3,29.94,West,270,4.0,4.0,45,0.00,BKN,,0.00,WeatherDisplay:10.37,2013-02-14 23:35:00,
2013-02-14 17:40:00,52.7,31.9,29.94,WNW,292,4.8,4.8,45,0.00,BKN,,0.00,WeatherDisplay:10.37,2013-02-14 23:40:00,
2013-02-14 17:45:00,52.2,32.0,29.94,North,0,1.7,1.8,46,0.00,BKN,,0.00,WeatherDisplay:10.37,2013-02-14 23:45:00,
2013-02-14 17:50:00,52.2,32.0,29.94,NW,315,3.4,3.4,46,0.00,BKN,,0.00,WeatherDisplay:10.37,2013-02-14 23:50:00,
2013-02-14 17:55:00,51.8,32.2,29.95,WNW,292,4.8,4.8,47,0.00,BKN,,0.00,WeatherDisplay:10.37,2013-02-14 23:55:00,
2013-02-14 18:00:00,51.6,32.0,29.95,WSW,248,3.4,3.4,47,0.00,BKN,,0.00,WeatherDisplay:10.37,2013-02-15 00:00:00,
2013-02-14 18:05:00,51.4,31.9,29.95,NW,315,4.6,4.6,47,0.00,BKN,,0.00,WeatherDisplay:10.37,2013-02-15 00:05:00,
2013-02-14 18:10:00,51.3,32.2,29.95,NW,315,5.8,5.8,48,0.00,BKN,,0.00,WeatherDisplay:10.37,2013-02-15 00:10:00,
2013-02-14 18:15:00,50.9,31.9,29.96,WNW,292,3.4,3.4,48,0.00,BKN,,0.00,WeatherDisplay:10.37,2013-02-15 00:15:00,
2013-02-14 18:20:00,50.7,32.2,29.96,WNW,292,3.4,3.4,49,0.00,BKN,,0.00,WeatherDisplay:10.37,2013-02-15 00:20:00,
2013-02-14 18:25:00,50.5,32.6,29.96,NW,315,2.8,2.8,50,0.00,BKN,,0.00,WeatherDisplay:10.37,2013-02-15 00:25:00,
2013-02-14 18:30:00,50.5,32.6,29.96,NW,315,2.5,2.5,50,0.00,BKN,,0.00,WeatherDisplay:10.37,2013-02-15 00:30:00,
2013-02-14 18:35:00,50.5,32.6,29.98,WSW,248,3.4,3.4,50,0.00,BKN,,0.00,WeatherDisplay:10.37,2013-02-15 00:35:00,
2013-02-14 18:40:00,50.2,32.7,29.98,WNW,292,3.6,3.6,51,0.00,BKN,,0.00,WeatherDisplay:10.37,2013-02-15 00:40:00,
2013-02-14 18:45:00,50.0,32.6,29.98,West,270,2.3,2.3,51,0.00,BKN,,0.00,WeatherDisplay:10.37,2013-02-15 00:45:00,
2013-02-14 18:50:00,50.0,33.1,29.98,WNW,292,2.6,2.6,52,0.00,BKN,,0.00,WeatherDisplay:10.37,2013-02-15 00:50:00,
2013-02-14 18:55:00,49.8,32.9,29.98,NW,315,3.5,3.5,52,0.00,BKN,,0.00,WeatherDisplay:10.37,2013-02-15 00:55:00,
2013-02-14 19:00:00,49.8,32.9,29.98,WSW,248,2.3,2.3,52,0.00,BKN,,0.00,WeatherDisplay:10.37,2013-02-15 01:00:00,
2013-02-14 19:05:00,49.5,32.1,29.98,NW,315,4.6,4.6,51,0.00,BKN,,0.00,WeatherDisplay:10.37,2013-02-15 01:05:00,
2013-02-14 19:10:00,49.5,32.6,29.98,ESE,112,3.7,3.7,52,0.00,BKN,,0.00,WeatherDisplay:10.37,2013-02-15 01:10:00,
2013-02-14 19:15:00,49.5,32.6,29.99,West,270,5.8,5.8,52,0.00,BKN,,0.00,WeatherDisplay:10.37,2013-02-15 01:15:00,
2013-02-14 19:20:00,49.3,31.9,29.99,North,0,1.4,2.0,51,0.00,BKN,,0.00,WeatherDisplay:10.37,2013-02-15 01:20:00,
2013-02-14 19:25:00,49.1,31.7,29.99,NNW,338,2.3,2.3,51,0.00,BKN,,0.00,WeatherDisplay:10.37,2013-02-15 01:25:00,
2013-02-14 19:30:00,48.9,31.6,29.99,NNE,22,1.3,1.7,51,0.00,BKN,,0.00,WeatherDisplay:10.37,2013-02-15 01:30:00,
2013-02-14 19:35:00,48.9,31.6,29.99,WSW,248,2.6,2.6,51,0.00,BKN,,0.00,WeatherDisplay:10.37,2013-02-15 01:35:00,
2013-02-14 19:40:00,48.7,31.4,29.99,NNW,338,6.3,6.3,51,0.00,BKN,,0.00,WeatherDisplay:10.37,2013-02-15 01:40:00,
2013-02-14 19:45:00,48.6,30.7,29.99,North,0,3.4,3.4,50,0.00,BKN,,0.00,WeatherDisplay:10.37,2013-02-15 01:45:00,
2013-02-14 19:50:00,48.6,30.7,29.99,North,0,4.6,4.6,50,0.00,BKN,,0.00,WeatherDisplay:10.37,2013-02-15 01:50:00,
2013-02-14 19:55:00,48.6,30.7,30.00,WSW,248,4.6,4.6,50,0.00,BKN,,0.00,WeatherDisplay:10.37,2013-02-15 01:55:00,
2013-02-14 20:00:00,48.6,30.7,30.00,North,0,2.4,3.1,50,0.00,BKN,,0.00,WeatherDisplay:10.37,2013-02-15 02:00:00,
2013-02-14 20:05:00,48.4,30.1,30.00,West,270,3.4,3.4,49,0.00,BKN,,0.00,WeatherDisplay:10.37,2013-02-15 02:05:00,
2013-02-14 20:10:00,48.4,30.1,30.00,WSW,248,2.3,2.3,49,0.00,BKN,,0.00,WeatherDisplay:10.37,2013-02-15 02:10:00,
2013-02-14 20:15:00,48.4,30.1,30.00,NW,315,3.5,3.5,49,0.00,BKN,,0.00,WeatherDisplay:10.37,2013-02-15 02:15:00,
2013-02-14 20:20:00,48.4,30.1,30.00,SW,225,2.8,2.8,49,0.00,BKN,,0.00,WeatherDisplay:10.37,2013-02-15 02:20:00,
2013-02-14 20:25:00,48.0,29.7,30.00,WNW,292,2.3,2.3,49,0.00,BKN,,0.00,WeatherDisplay:10.37,2013-02-15 02:25:00,
2013-02-14 20:30:00,48.0,29.7,30.00,West,270,2.7,2.7,49,0.00,BKN,,0.00,WeatherDisplay:10.37,2013-02-15 02:30:00,
2013-02-14 20:35:00,47.8,30.1,30.00,WNW,292,2.3,2.3,50,0.00,BKN,,0.00,WeatherDisplay:10.37,2013-02-15 02:35:00,
2013-02-14 20:40:00,47.8,30.1,30.00,WSW,248,2.3,2.3,50,0.00,BKN,,0.00,WeatherDisplay:10.37,2013-02-15 02:40:00,
2013-02-14 20:45:00,47.7,29.9,30.00,WNW,292,1.4,1.4,50,0.00,BKN,,0.00,WeatherDisplay:10.37,2013-02-15 02:45:00,
2013-02-14 20:50:00,47.7,29.9,30.00,WNW,292,1.1,1.1,50,0.00,BKN,,0.00,WeatherDisplay:10.37,2013-02-15 02:50:00,
2013-02-14 20:55:00,47.7,29.9,30.01,NW,315,1.1,1.1,50,0.00,BKN,,0.00,WeatherDisplay:10.37,2013-02-15 02:55:00,
2013-02-14 21:00:00,47.3,29.6,30.01,SW,225,1.1,1.1,50,0.00,BKN,,0.00,WeatherDisplay:10.37,2013-02-15 03:00:00,
2013-02-14 21:05:00,47.3,30.1,30.01,WNW,292,0.0,0.2,51,0.00,BKN,,0.00,WeatherDisplay:10.37,2013-02-15 03:05:00,
2013-02-14 21:10:00,47.1,29.9,30.01,WSW,248,0.0,0.1,51,0.00,BKN,,0.00,WeatherDisplay:10.37,2013-02-15 03:10:00,
2013-02-14 21:15:00,47.1,29.9,30.01,WSW,248,0.0,0.0,51,0.00,BKN,,0.00,WeatherDisplay:10.37,2013-02-15 03:15:00,
2013-02-14 21:20:00,46.9,29.7,30.01,WSW,248,0.0,0.0,51,0.00,BKN,,0.00,WeatherDisplay:10.37,2013-02-15 03:20:00,
2013-02-14 21:25:00,46.9,29.7,30.01,West,270,0.0,0.0,51,0.00,BKN,,0.00,WeatherDisplay:10.37,2013-02-15 03:25:00,
2013-02-14 21:30:00,46.8,30.0,30.01,SW,225,0.0,0.0,52,0.00,BKN,,0.00,WeatherDisplay:10.37,2013-02-15 03:30:00,
2013-02-14 21:35:00,46.6,29.9,30.00,WSW,248,0.0,0.0,52,0.00,BKN,,0.00,WeatherDisplay:10.37,2013-02-15 03:35:00,
2013-02-14 21:40:00,46.4,29.7,30.00,NE,45,0.0,0.0,52,0.00,BKN,,0.00,WeatherDisplay:10.37,2013-02-15 03:40:00,
2013-02-14 21:45:00,46.2,30.0,30.00,East,90,0.0,0.0,53,0.00,BKN,,0.00,WeatherDisplay:10.37,2013-02-15 03:45:00,
2013-02-14 21:50:00,46.0,29.8,30.00,NE,45,0.0,0.0,53,0.00,BKN,,0.00,WeatherDisplay:10.37,2013-02-15 03:50:00,
2013-02-14 21:55:00,45.9,29.7,30.00,NW,315,0.0,0.0,53,0.00,BKN,,0.00,WeatherDisplay:10.37,2013-02-15 03:55:00,
2013-02-14 22:00:00,45.7,29.5,30.00,NW,315,0.0,0.0,53,0.00,BKN,,0.00,WeatherDisplay:10.37,2013-02-15 04:00:00,
2013-02-14 22:05:00,45.7,30.0,30.00,NW,315,0.0,0.0,54,0.00,BKN,,0.00,WeatherDisplay:10.37,2013-02-15 04:05:00,
2013-02-14 22:10:00,45.5,29.8,30.00,ENE,68,0.0,0.0,54,0.00,BKN,,0.00,WeatherDisplay:10.37,2013-02-15 04:10:00,
2013-02-14 22:15:00,45.3,30.1,30.01,NE,45,0.0,0.0,55,0.00,BKN,,0.00,WeatherDisplay:10.37,2013-02-15 04:15:00,
2013-02-14 22:20:00,45.1,29.9,30.01,WNW,292,0.0,0.0,55,0.00,BKN,,0.00,WeatherDisplay:10.37,2013-02-15 04:20:00,
2013-02-14 22:25:00,45.0,29.8,30.01,WNW,292,0.0,0.0,55,0.00,BKN,,0.00,WeatherDisplay:10.37,2013-02-15 04:25:00,
2013-02-14 22:30:00,45.0,30.2,30.01,NW,315,0.0,0.0,56,0.00,BKN,,0.00,WeatherDisplay:10.37,2013-02-15 04:30:00,
2013-02-14 22:35:00,44.8,30.0,30.01,NNW,338,1.1,1.1,56,0.00,BKN,,0.00,WeatherDisplay:10.37,2013-02-15 04:35:00,
2013-02-14 22:40:00,44.8,30.0,30.01,NW,315,1.3,1.3,56,0.00,BKN,,0.00,WeatherDisplay:10.37,2013-02-15 04:40:00,
2013-02-14 22:45:00,44.8,30.0,30.01,ESE,112,1.1,1.1,56,0.00,BKN,,0.00,WeatherDisplay:10.37,2013-02-15 04:45:00,
2013-02-14 22:50:00,44.8,30.0,30.01,NE,45,1.7,1.7,56,0.00,BKN,,0.00,WeatherDisplay:10.37,2013-02-15 04:50:00,
2013-02-14 22:55:00,44.8,30.0,30.02,SSW,202,0.0,0.6,56,0.00,BKN,,0.00,WeatherDisplay:10.37,2013-02-15 04:55:00,
2013-02-14 23:00:00,44.8,30.5,30.02,ENE,68,1.2,1.2,57,0.00,BKN,,0.00,WeatherDisplay:10.37,2013-02-15 05:00:00,
2013-02-14 23:05:00,44.8,30.5,30.02,NNW,338,1.4,1.4,57,0.00,BKN,,0.00,WeatherDisplay:10.37,2013-02-15 05:05:00,
2013-02-14 23:10:00,44.6,29.9,30.02,SW,225,0.0,0.5,56,0.00,BKN,,0.00,WeatherDisplay:10.37,2013-02-15 05:10:00,
2013-02-14 23:15:00,44.6,29.9,30.01,NW,315,0.0,0.2,56,0.00,BKN,,0.00,WeatherDisplay:10.37,2013-02-15 05:15:00,
2013-02-14 23:20:00,44.6,29.9,30.01,NW,315,0.0,0.0,56,0.00,BKN,,0.00,WeatherDisplay:10.37,2013-02-15 05:20:00,
2013-02-14 23:25:00,44.8,30.0,30.01,WNW,292,1.1,0.0,56,0.00,BKN,,0.00,WeatherDisplay:10.37,2013-02-15 05:25:00,
2013-02-14 23:30:00,44.4,29.7,30.01,NNW,338,0.0,0.1,56,0.00,BKN,,0.00,WeatherDisplay:10.37,2013-02-15 05:30:00,
2013-02-14 23:35:00,44.4,29.7,30.02,NE,45,0.0,0.2,56,0.00,BKN,,0.00,WeatherDisplay:10.37,2013-02-15 05:35:00,
2013-02-14 23:40:00,44.2,29.5,30.02,NW,315,0.0,0.1,56,0.00,BKN,,0.00,WeatherDisplay:10.37,2013-02-15 05:40:00,
2013-02-14 23:45:00,44.2,29.5,30.02,NE,45,0.0,0.0,56,0.00,BKN,,0.00,WeatherDisplay:10.37,2013-02-15 05:45:00,
2013-02-14 23:50:00,44.2,29.5,30.02,WNW,292,0.0,0.0,56,0.00,BKN,,0.00,WeatherDisplay:10.37,2013-02-15 05:50:00,
2013-02-14 23:55:00,44.1,29.4,30.03,WNW,292,0.0,0.0,56,0.00,BKN,,0.00,WeatherDisplay:10.37,2013-02-15 05:55:00,